Location: Unspecified
(0.0000°N, 0.0000°E)
Time: 21:28:54
(UTC+00:00)

Hubble Space Telescope - Pass Details

Date: 03 June 2023
Orbit: 525 x 528 km, 28.5° (Epoch: 04 June)

Event Time Altitude Azimuth Distance (km) Brightness Sun altitude
Rises 19:49:44 0° 283° (WNW) 2,637 5.6 -25.6°
Reaches altitude 10° 19:52:09 10° 273° (W) 1,750 4.2 -26.2°
Enters shadow 19:54:45 27° 238° (WSW) 1,021 2.4 -26.8°
